Hourly Data Report for December 29, 2020

CARBERRY CS
MANITOBA
Current Station Operator: ECCC - MSC

49°54'20.900" N
99°21'26.800" W
383.50 m
5010547
71170
WZE

Download Data

Hourly Data (December 2020)
Hourly Data Report for December 29, 2020
TIME
LST
Temp Definition
°C
Dew Point Definition
°C
Rel Hum Definition
%
Precip. Amount Definition
mm

Wind Dir Definition
10's deg

Wind Spd Definition
km/h
Visibility Definition
km
Stn Press Definition
kPa
Hmdx Definition


Wind Chill Definition


Weather Definition


00:00 -15.8 -17.7 85 0.0 18 16   97.18   -24 LegendNANA
01:00 -15.7 -17.6 85 0.0 17 12   97.10   -23 LegendNANA
02:00 -17.0 -19.0 85 0.0 19 7   97.09   -22 LegendNANA
03:00 -16.1 -17.9 86 0.0 16 14   97.01   -24 LegendNANA
04:00 -16.4 -18.2 86 0.0 16 9   96.94   -22 LegendNANA
05:00 -15.7 -17.5 86 0.0 15 10   96.88   -22 LegendNANA
06:00 -16.9 -18.8 85 0.0 15 6   96.80   -21 LegendNANA
07:00 -16.1 -17.4 90 0.0 18 9   96.74   -22 LegendNANA
08:00 -13.5 -15.0 88 0.0 18 14   96.68   -21 LegendNANA
09:00 -14.3 -15.9 88 0.0 19 11   96.65   -21 LegendNANA
10:00 -13.7 -15.3 88 0.0 19 9   96.68   -19 LegendNANA
11:00 -9.8 -11.1 90 0.0 21 7   96.67   -14 LegendNANA
12:00 -7.8 -9.6 87 0.0 22 8   96.59   -12 LegendNANA
13:00 -6.4 -8.8 83 0.0 26 17   96.47   -13 LegendNANA
14:00 -5.9 -8.1 84 0.0 25 10   96.43   -10 LegendNANA
15:00 -5.7 -7.2 89 0.0 26 7   96.40   -9 LegendNANA
16:00 -6.3 -8.0 88 0.0 27 18   96.45   -13 LegendNANA
17:00 -7.1 -8.5 90 0.0 27 14   96.49   -13 LegendNANA
18:00 -7.2 -8.7 89 0.2 28 12   96.47   -13 LegendNANA
19:00 -6.6 -8.3 88 0.0 31 13   96.46   -12 LegendNANA
20:00 -6.6 -8.6 86 0.0 36 19   96.48   -13 LegendNANA
21:00 -7.1 -9.2 85 0.0 36 19   96.54   -14 LegendNANA
22:00 -7.4 -9.3 86 0.0 35 18   96.58   -14 LegendNANA
23:00 -8.1 -9.5 90 0.0 34 16   96.58   -15 LegendNANA

Notes on Data Quality.

Legend

  • E = Estimated
  • M = Missing
  • NA = Not Available*
  • [empty] = Indicates an unobserved value
Date modified: